When you browse on this site, cookies collect data to enhance your experience and personalize the content and advertising you see.
Visit our Privacy Policy to learn more. By continuing to use the site, you agree to this use of cookies and data.

Previsão horária em Shusha

Hoje, 18 Setembro, Sexta-feira

Tempo Temperatura Precipitação Vento Pressão Humidade
00:00 +13°C° 0 mm 0 m/s 663 mmHg 91%
01:00 +13°C° 0 mm 0 m/s 662 mmHg 91%
02:00 +13°C° 0 mm 0 m/s 662 mmHg 90%
03:00 +13°C° 0 mm 0 m/s 661 mmHg 91%
04:00 +13°C° 0 mm 0 m/s 661 mmHg 91%
05:00 +13°C° 0 mm 0 m/s 661 mmHg 90%
06:00 +13°C° 0 mm 0 m/s 661 mmHg 89%
07:00 +14°C° 0 mm 0 m/s 661 mmHg 83%
08:00 +18°C° 0 mm 1 m/s 661 mmHg 77%
09:00 +19°C° 0 mm 1 m/s 661 mmHg 71%
10:00 +20°C° 0 mm 2 m/s 661 mmHg 65%
11:00 +21°C° 0 mm 2 m/s 661 mmHg 60%
12:00 +24°C° 0 mm 3 m/s 661 mmHg 54%
13:00 +24°C° 0 mm 3 m/s 661 mmHg 54%
14:00 +24°C° 0 mm 2 m/s 660 mmHg 53%
15:00 +25°C° 0 mm 2 m/s 659 mmHg 53%
16:00 +23°C° 0 mm 2 m/s 659 mmHg 59%
17:00 +22°C° 0 mm 1 m/s 659 mmHg 65%
18:00 +20°C° 0 mm 1 m/s 658 mmHg 72%
19:00 +20°C° 0 mm 1 m/s 658 mmHg 74%
20:00 +19°C° 0 mm 1 m/s 658 mmHg 75%
21:00 +18°C° 0 mm 1 m/s 658 mmHg 77%
22:00 +18°C° 0 mm 1 m/s 658 mmHg 76%
23:00 +18°C° 0 mm 1 m/s 658 mmHg 75%

Amanhã, 19 Setembro, Sábado

Tempo Temperatura Precipitação Vento Pressão Humidade
00:00 +18°C° 0 mm 1 m/s 658 mmHg 74%
01:00 +18°C° 0 mm 1 m/s 657 mmHg 73%
02:00 +18°C° 0 mm 1 m/s 657 mmHg 72%
03:00 +18°C° 0 mm 1 m/s 657 mmHg 70%
04:00 +18°C° 0 mm 1 m/s 657 mmHg 70%
05:00 +18°C° 0 mm 1 m/s 657 mmHg 69%
06:00 +18°C° 0 mm 1 m/s 657 mmHg 68%
07:00 +20°C° 0 mm 1 m/s 658 mmHg 61%
08:00 +22°C° 0 mm 1 m/s 658 mmHg 55%
09:00 +24°C° 0 mm 1 m/s 659 mmHg 48%
10:00 +25°C° 0 mm 2 m/s 659 mmHg 46%
11:00 +26°C° 0 mm 2 m/s 659 mmHg 44%
12:00 +26°C° 0 mm 3 m/s 659 mmHg 41%
13:00 +26°C° 0.1 mm 3 m/s 659 mmHg 42%
14:00 +26°C° 0.1 mm 3 m/s 658 mmHg 43%
15:00 +26°C° 0.1 mm 3 m/s 658 mmHg 44%
16:00 +24°C° 0.3 mm 2 m/s 658 mmHg 50%
17:00 +23°C° 0.3 mm 2 m/s 658 mmHg 56%
18:00 +21°C° 0.3 mm 1 m/s 658 mmHg 62%
19:00 +20°C° 0.1 mm 1 m/s 658 mmHg 66%
20:00 +19°C° 0.1 mm 1 m/s 658 mmHg 69%
21:00 +19°C° 0.1 mm 1 m/s 659 mmHg 72%
22:00 +18°C° 0 mm 1 m/s 659 mmHg 76%
23:00 +16°C° 0 mm 1 m/s 659 mmHg 80%

Depois de amanhã, 20 Setembro, Domingo

Tempo Temperatura Precipitação Vento Pressão Humidade
00:00 +16°C° 0 mm 1 m/s 660 mmHg 84%
01:00 +15°C° 0 mm 1 m/s 660 mmHg 86%
02:00 +14°C° 0 mm 1 m/s 660 mmHg 88%
03:00 +13°C° 0 mm 0 m/s 660 mmHg 90%
04:00 +13°C° 0 mm 0 m/s 660 mmHg 90%
05:00 +13°C° 0 mm 0 m/s 660 mmHg 90%
06:00 +12°C° 0 mm 0 m/s 661 mmHg 90%
07:00 +15°C° 0 mm 1 m/s 661 mmHg 84%
08:00 +16°C° 0 mm 1 m/s 661 mmHg 78%
09:00 +17°C° 0 mm 2 m/s 662 mmHg 73%
10:00 +17°C° 0 mm 2 m/s 661 mmHg 70%
11:00 +18°C° 0 mm 2 m/s 661 mmHg 68%
12:00 +18°C° 0 mm 2 m/s 661 mmHg 65%
13:00 +18°C° 0 mm 2 m/s 660 mmHg 65%
14:00 +18°C° 0 mm 2 m/s 660 mmHg 64%
15:00 +19°C° 0 mm 2 m/s 660 mmHg 64%
16:00 +18°C° 0 mm 2 m/s 659 mmHg 68%
17:00 +17°C° 0 mm 2 m/s 659 mmHg 71%
18:00 +16°C° 0 mm 2 m/s 659 mmHg 75%
19:00 +16°C° 0 mm 1 m/s 660 mmHg 79%
20:00 +15°C° 0 mm 1 m/s 660 mmHg 83%
21:00 +15°C° 0 mm 1 m/s 660 mmHg 88%
22:00 +15°C° 0.1 mm 1 m/s 661 mmHg 89%
23:00 +15°C° 0.1 mm 1 m/s 661 mmHg 90%

21 Setembro, Segunda-feira

Tempo Temperatura Precipitação Vento Pressão Humidade
00:00 +15°C° 0.1 mm 1 m/s 661 mmHg 91%
01:00 +15°C° 0 mm 1 m/s 661 mmHg 91%
02:00 +14°C° 0 mm 1 m/s 661 mmHg 92%
03:00 +14°C° 0 mm 1 m/s 661 mmHg 92%
04:00 +14°C° 0.1 mm 1 m/s 661 mmHg 93%
05:00 +14°C° 0.1 mm 1 m/s 662 mmHg 93%
06:00 +14°C° 0.1 mm 1 m/s 662 mmHg 94%
07:00 +14°C° 0.1 mm 1 m/s 662 mmHg 93%
08:00 +14°C° 0.1 mm 1 m/s 662 mmHg 92%
09:00 +14°C° 0.1 mm 2 m/s 662 mmHg 92%
10:00 +15°C° 0.1 mm 2 m/s 663 mmHg 89%
11:00 +15°C° 0.1 mm 2 m/s 663 mmHg 86%
12:00 +16°C° 0.1 mm 2 m/s 663 mmHg 84%
13:00 +15°C° 0.1 mm 2 m/s 662 mmHg 85%
14:00 +15°C° 0.1 mm 2 m/s 662 mmHg 87%
15:00 +15°C° 0.1 mm 2 m/s 661 mmHg 88%
16:00 +15°C° 0 mm 2 m/s 661 mmHg 90%
17:00 +14°C° 0 mm 1 m/s 661 mmHg 92%
18:00 +14°C° 0 mm 1 m/s 661 mmHg 94%
19:00 +14°C° 0 mm 1 m/s 661 mmHg 94%
20:00 +14°C° 0 mm 1 m/s 661 mmHg 94%
21:00 +12°C° 0 mm 0 m/s 662 mmHg 94%
22:00 +12°C° 0.1 mm 0 m/s 661 mmHg 93%
23:00 +12°C° 0.1 mm 0 m/s 661 mmHg 93%

22 Setembro, Terça-feira

Tempo Temperatura Precipitação Vento Pressão Humidade
00:00 +12°C° 0.1 mm 0 m/s 661 mmHg 92%
01:00 +12°C° 0.1 mm 0 m/s 661 mmHg 93%
02:00 +12°C° 0.1 mm 0 m/s 661 mmHg 93%
03:00 +12°C° 0.1 mm 0 m/s 660 mmHg 94%
04:00 +12°C° 0 mm 0 m/s 660 mmHg 93%
05:00 +12°C° 0 mm 0 m/s 660 mmHg 93%
06:00 +12°C° 0 mm 0 m/s 660 mmHg 92%
07:00 +14°C° 0 mm 1 m/s 661 mmHg 87%
08:00 +15°C° 0 mm 1 m/s 661 mmHg 82%
09:00 +16°C° 0 mm 1 m/s 661 mmHg 77%
10:00 +17°C° 0 mm 2 m/s 661 mmHg 74%
11:00 +18°C° 0 mm 2 m/s 661 mmHg 71%
12:00 +19°C° 0 mm 2 m/s 661 mmHg 68%
13:00 +19°C° 0.1 mm 2 m/s 660 mmHg 69%
14:00 +19°C° 0.1 mm 2 m/s 660 mmHg 71%
15:00 +18°C° 0.1 mm 2 m/s 660 mmHg 72%
16:00 +18°C° 0 mm 2 m/s 660 mmHg 75%
17:00 +18°C° 0 mm 1 m/s 659 mmHg 78%
18:00 +18°C° 0 mm 1 m/s 659 mmHg 81%
19:00 +16°C° 0 mm 1 m/s 660 mmHg 82%
20:00 +16°C° 0 mm 1 m/s 660 mmHg 82%
21:00 +16°C° 0 mm 1 m/s 661 mmHg 83%
22:00 +16°C° 0.2 mm 1 m/s 661 mmHg 85%
23:00 +15°C° 0.2 mm 1 m/s 661 mmHg 86%

23 Setembro, Quarta-feira

Tempo Temperatura Precipitação Vento Pressão Humidade
00:00 +15°C° 0.2 mm 2 m/s 661 mmHg 88%
01:00 +15°C° 0.1 mm 2 m/s 661 mmHg 87%
02:00 +14°C° 0.1 mm 1 m/s 661 mmHg 87%
03:00 +14°C° 0.1 mm 1 m/s 661 mmHg 87%
04:00 +14°C° 0 mm 1 m/s 661 mmHg 87%
05:00 +14°C° 0 mm 1 m/s 661 mmHg 86%
06:00 +14°C° 0 mm 1 m/s 661 mmHg 86%
07:00 +14°C° 0.2 mm 1 m/s 661 mmHg 86%
08:00 +14°C° 0.2 mm 1 m/s 662 mmHg 86%
09:00 +14°C° 0.2 mm 1 m/s 662 mmHg 85%
10:00 +15°C° 0.1 mm 1 m/s 662 mmHg 85%
11:00 +15°C° 0.1 mm 1 m/s 662 mmHg 84%
12:00 +15°C° 0.1 mm 1 m/s 662 mmHg 83%
13:00 +15°C° 0 mm 1 m/s 662 mmHg 81%
14:00 +15°C° 0 mm 1 m/s 662 mmHg 79%
15:00 +16°C° 0 mm 1 m/s 662 mmHg 77%
16:00 +15°C° 0 mm 1 m/s 662 mmHg 79%
17:00 +15°C° 0 mm 1 m/s 662 mmHg 81%
18:00 +14°C° 0 mm 1 m/s 662 mmHg 84%
19:00 +14°C° 0 mm 1 m/s 662 mmHg 83%
20:00 +14°C° 0 mm 1 m/s 662 mmHg 82%
21:00 +14°C° 0 mm 1 m/s 662 mmHg 81%
22:00 +14°C° 0 mm 1 m/s 662 mmHg 81%
23:00 +14°C° 0 mm 1 m/s 662 mmHg 82%
Mostrar mais